Location: Ottawa
(45.4170°N, 75.7000°W)
Time: 00:13:55
(UTC-04:00)

Amateur Radio Satellites - All Passes

Search period start: 30 August 2014 23:43
Search period end: 31 August 2014 23:43
Location: Ottawa, 45.4170°N, 75.7000°W

Satellite Date Start Highest point End Downlink Frequencies (MHz)
Time Altitude Azimuth
MaSat-1 30 Aug 23:45:05 23:49:08 31° 253° (WSW) 23:52:42 437.345 MHz
Saudisat 1A 31 Aug 00:00:22 00:04:38 46° 312° (NW) 00:08:55 436.775 MHz
PCSat 31 Aug 00:11:12 00:14:21 15° 32° (NNE) 00:17:29 145.825 MHz
KITSAT 1 31 Aug 00:50:52 00:58:55 69° 307° (NW) 01:07:02 435.175 FM
Sapphire 31 Aug 01:24:11 01:29:12 36° 47° (NE) 01:34:11 437.095 MHz 1200 baud AX-25 AFSK
Saudisat 1A 31 Aug 01:43:43 01:45:19 12° 334° (NNW) 01:46:54 436.775 MHz
PCSat 31 Aug 01:53:31 01:58:55 61° 54° (NE) 02:04:17 145.825 MHz
Oscar 19 31 Aug 02:01:41 02:06:20 32° 96° (E) 02:10:56 437.125 CW, 437.150 USB
AO-Echo 31 Aug 02:28:20 02:32:16 26° 94° (E) 02:36:11 ?
ITAMSAT 1 31 Aug 02:34:28 02:38:55 28° 95° (E) 02:43:21 435.822 SSB
Oscar 16 31 Aug 02:36:16 02:41:29 67° 102° (ESE) 02:46:38 437.025 USB, Beacon 2401.1428
Uribyol 2 31 Aug 02:44:10 02:48:58 36° 97° (E) 02:53:44 436.500 FM
TMSAT-1 31 Aug 02:45:59 02:48:12 13° 87° (E) 02:50:24 436.925 FM
KITSAT 1 31 Aug 02:49:30 02:55:55 25° 333° (NNW) 03:02:21 435.175 FM
JAS-1B 31 Aug 02:52:24 02:58:45 39° 94° (E) 03:04:16 435.800 - 435.900 CW/SSB
AO-27 31 Aug 03:03:10 03:08:14 51° 100° (E) 03:13:17 436.795 MHz FM
Sapphire 31 Aug 03:07:38 03:12:42 41° 247° (WSW) 03:17:44 437.095 MHz 1200 baud AX-25 AFSK
Gurwin Techsat 1B 31 Aug 03:32:13 03:37:18 44° 98° (E) 03:42:21 435.225 FM
PCSat 31 Aug 03:37:47 03:41:54 22° 253° (WSW) 03:45:59 145.825 MHz
Oscar 19 31 Aug 03:40:58 03:45:42 36° 293° (WNW) 03:50:24 437.125 CW, 437.150 USB
AO-7 31 Aug 03:47:40 03:52:09 15° 86° (E) 03:56:37 29.400 - 29.500 MHz
OPAL 31 Aug 03:48:53 03:53:34 39° 65° (ENE) 03:58:21 ?
AO-Echo 31 Aug 04:06:50 04:11:09 37° 292° (WNW) 04:15:27 ?
SO-50 31 Aug 04:11:17 04:15:43 65° 122° (ESE) 04:20:17 436.795 FM
ITAMSAT 1 31 Aug 04:13:41 04:18:31 41° 292° (WNW) 04:23:20 435.822 SSB
Oscar 16 31 Aug 04:16:44 04:20:19 19° 300° (WNW) 04:23:53 437.025 USB, Beacon 2401.1428
TMSAT-1 31 Aug 04:23:31 04:28:51 89° 285° (WNW) 04:34:09 436.925 FM
Uribyol 2 31 Aug 04:23:48 04:28:22 32° 295° (WNW) 04:32:56 436.500 FM
JAS-1B 31 Aug 04:43:05 04:49:24 38° 298° (WNW) 04:54:55 435.800 - 435.900 CW/SSB
AO-27 31 Aug 04:43:22 04:47:26 24° 298° (WNW) 04:51:29 436.795 MHz FM
KITSAT 1 31 Aug 04:49:48 04:54:44 17° 3° (N) 04:59:40 435.175 FM
Uosat F 31 Aug 04:57:09 05:01:48 38° 98° (E) 05:06:26 435.120 FM
Oscar 10/S400 31 Aug 05:04:19 06:05:03 20° 248° (WSW) 08:19:20 145.825 - 145.975 CW/USB, Beacon 145.810 USB
Saudisat 1A 31 Aug 05:08:16 05:08:57 10° 24° (NNE) 05:09:37 436.775 MHz
Gurwin Techsat 1B 31 Aug 05:12:37 05:17:03 28° 296° (WNW) 05:21:29 435.225 FM
OPAL 31 Aug 05:28:10 05:32:32 29° 263° (W) 05:37:00 ?
STRAND 1 31 Aug 05:34:40 05:38:05 19° 60° (ENE) 05:41:31 ?
AO-7 31 Aug 05:38:00 05:46:20 75° 106° (ESE) 05:54:36 29.400 - 29.500 MHz
SO-50 31 Aug 05:53:07 05:56:43 23° 323° (NW) 06:00:23 436.795 FM
Hamsat 31 Aug 05:53:45 05:56:12 15° 89° (E) 05:58:37 145.90 MHz
TMSAT-1 31 Aug 06:05:12 06:08:01 15° 303° (WNW) 06:10:50 436.925 FM
UOSAT-12 31 Aug 06:09:09 06:13:46 78° 124° (SE) 06:18:29 437.025 FM, 437.400 FM
RS-15 31 Aug 06:29:58 06:37:42 23° 100° (E) 06:45:19 29.354 - 29.394 USB, Beacon 29.352 USB
JAS-2 31 Aug 06:32:09 06:36:57 35° 97° (E) 06:42:01 435.800 - 435.900 CW/SSB, 435.910 FM
Uosat F 31 Aug 06:36:11 06:40:28 29° 295° (WNW) 06:44:45 435.120 FM
Saudisat 1A 31 Aug 06:45:37 06:49:46 38° 46° (NE) 06:53:54 436.775 MHz
KITSAT 1 31 Aug 06:46:30 06:53:20 29° 32° (NNE) 07:00:08 435.175 FM
STRAND 1 31 Aug 07:11:42 07:16:46 67° 258° (WSW) 07:21:51 ?
Hamsat 31 Aug 07:28:15 07:32:33 58° 287° (WNW) 07:36:47 145.90 MHz
AO-7 31 Aug 07:31:36 07:38:27 30° 307° (NW) 07:45:16 29.400 - 29.500 MHz
UOSAT-12 31 Aug 07:50:55 07:54:28 21° 324° (NW) 07:58:04 437.025 FM, 437.400 FM
SO-67 31 Aug 08:04:58 08:08:23 56° 100° (E) 08:11:47 435.3500 MHz FM
JAS-2 31 Aug 08:17:27 08:22:04 33° 294° (WNW) 08:26:55 435.800 - 435.900 CW/SSB, 435.910 FM
Saudisat 1A 31 Aug 08:25:26 08:29:15 29° 244° (WSW) 08:33:03 436.775 MHz
RS-15 31 Aug 08:37:18 08:48:22 85° 123° (ESE) 08:59:20 29.354 - 29.394 USB, Beacon 29.352 USB
KITSAT 1 31 Aug 08:41:47 08:49:55 85° 56° (ENE) 08:58:00 435.175 FM
HO-68 31 Aug 08:48:40 08:53:29 19° 89° (E) 08:58:16 435.675 MHz FM
UKube-1 31 Aug 09:18:59 09:20:20 11° 89° (E) 09:21:42 145.840 MHz, 145.915 MHz
SO-67 31 Aug 09:40:06 09:40:58 11° 297° (WNW) 09:41:50 435.3500 MHz FM
ISS 31 Aug 09:51:17 09:52:36 12° 132° (SE) 09:53:56 145.800 FM
HO-68 31 Aug 10:34:51 10:42:03 86° 288° (WNW) 10:49:13 435.675 MHz FM
KITSAT 1 31 Aug 10:38:27 10:44:22 23° 257° (WSW) 10:50:15 435.175 FM
RS-15 31 Aug 10:51:59 11:02:01 39° 330° (NNW) 11:12:06 29.354 - 29.394 USB, Beacon 29.352 USB
UKube-1 31 Aug 10:52:43 10:57:04 75° 286° (WNW) 11:01:24 145.840 MHz, 145.915 MHz
Oscar 11 31 Aug 10:58:12 11:02:37 86° 103° (ESE) 11:06:59 145.825 FM, Beacon 2401.500 USB
SO-50 31 Aug 11:00:53 11:04:31 21° 36° (NE) 11:08:12 436.795 FM
FUNcube-1 31 Aug 11:25:15 11:29:47 68° 102° (ESE) 11:34:21 145.950 - 145.970 MHz USB
ISS 31 Aug 11:25:31 11:28:50 77° 149° (SSE) 11:32:10 145.800 FM
JAS-1B 31 Aug 11:52:26 11:56:35 14° 46° (NE) 12:00:31 435.800 - 435.900 CW/SSB
Oscar 16 31 Aug 12:18:24 12:21:50 18° 59° (ENE) 12:25:17 437.025 USB, Beacon 2401.1428
HO-68 31 Aug 12:23:53 12:28:49 21° 308° (NW) 12:33:44 435.675 MHz FM
Uribyol 2 31 Aug 12:29:29 12:30:45 11° 54° (NE) 12:32:01 436.500 FM
Oscar 11 31 Aug 12:36:35 12:38:08 12° 301° (WNW) 12:39:40 145.825 FM, Beacon 2401.500 USB
SO-50 31 Aug 12:40:50 12:45:38 78° 236° (SW) 12:50:28 436.795 FM
AO-27 31 Aug 12:47:01 12:49:54 15° 57° (ENE) 12:52:47 436.795 MHz FM
UOSAT-12 31 Aug 12:57:16 13:01:03 23° 37° (NE) 13:04:48 437.025 FM, 437.400 FM
ISS 31 Aug 13:02:47 13:05:49 32° 348° (NNW) 13:08:52 145.800 FM
FUNcube-1 31 Aug 13:03:03 13:05:40 15° 299° (WNW) 13:08:18 145.950 - 145.970 MHz USB
RS-15 31 Aug 13:09:24 13:18:24 28° 5° (N) 13:27:31 29.354 - 29.394 USB, Beacon 29.352 USB
Gurwin Techsat 1B 31 Aug 13:19:01 13:21:37 14° 56° (NE) 13:24:13 435.225 FM
Oscar 19 31 Aug 13:20:33 13:25:36 57° 71° (ENE) 13:30:42 437.125 CW, 437.150 USB
MaSat-1 31 Aug 13:33:34 13:38:30 70° 115° (ESE) 13:43:40 437.345 MHz
JAS-1B 31 Aug 13:36:13 13:45:25 52° 66° (ENE) 13:53:35 435.800 - 435.900 CW/SSB
AO-Echo 31 Aug 13:43:07 13:47:51 44° 70° (ENE) 13:52:29 ?
ITAMSAT 1 31 Aug 13:54:30 13:59:30 53° 70° (ENE) 14:04:32 435.822 SSB
Oscar 16 31 Aug 13:55:29 14:00:38 70° 258° (WSW) 14:05:50 437.025 USB, Beacon 2401.1428
Uribyol 2 31 Aug 14:04:10 14:09:16 68° 72° (ENE) 14:14:25 436.500 FM
TMSAT-1 31 Aug 14:08:01 14:12:19 26° 63° (ENE) 14:16:37 436.925 FM
AO-27 31 Aug 14:23:32 14:28:43 86° 255° (WSW) 14:33:56 436.795 MHz FM
SO-50 31 Aug 14:24:24 14:25:25 11° 253° (WSW) 14:26:26 436.795 FM
UOSAT-12 31 Aug 14:36:57 14:41:40 69° 238° (WSW) 14:46:18 437.025 FM, 437.400 FM
Uosat F 31 Aug 14:38:59 14:39:33 10° 53° (NE) 14:40:07 435.120 FM
ISS 31 Aug 14:40:11 14:43:09 29° 8° (N) 14:46:07 145.800 FM
AO-7 31 Aug 14:48:25 14:55:22 31° 53° (NE) 15:02:18 29.400 - 29.500 MHz
Gurwin Techsat 1B 31 Aug 14:55:28 15:00:46 84° 74° (ENE) 15:06:07 435.225 FM
Oscar 19 31 Aug 15:01:35 15:05:19 20° 269° (W) 15:09:06 437.125 CW, 437.150 USB
MaSat-1 31 Aug 15:12:05 15:16:03 22° 314° (NW) 15:20:04 437.345 MHz
AO-Echo 31 Aug 15:22:49 15:26:48 24° 266° (W) 15:30:44 ?
RS-15 31 Aug 15:23:45 15:34:18 47° 37° (NE) 15:45:08 29.354 - 29.394 USB, Beacon 29.352 USB
JAS-1B 31 Aug 15:26:39 15:35:54 47° 263° (W) 15:44:16 435.800 - 435.900 CW/SSB
Oscar 10/S400 31 Aug 15:35:24 15:42:27 12° 142° (SE) 15:49:20 145.825 - 145.975 CW/USB, Beacon 145.810 USB
ITAMSAT 1 31 Aug 15:35:25 15:39:19 21° 268° (W) 15:43:14 435.822 SSB
Uribyol 2 31 Aug 15:46:03 15:49:15 17° 270° (W) 15:52:29 436.500 FM
TMSAT-1 31 Aug 15:46:52 15:51:58 48° 261° (W) 15:57:05 436.925 FM
AO-27 31 Aug 16:07:29 16:09:01 11° 273° (W) 16:10:33 436.795 MHz FM
Sapphire 31 Aug 16:09:54 16:13:33 19° 106° (ESE) 16:17:14 437.095 MHz 1200 baud AX-25 AFSK
Uosat F 31 Aug 16:12:26 16:17:24 66° 72° (ENE) 16:22:23 435.120 FM
ISS 31 Aug 16:16:54 16:20:14 78° 28° (NNE) 16:23:34 145.800 FM
PCSat 31 Aug 16:37:49 16:42:39 34° 111° (ESE) 16:47:31 145.825 MHz
Gurwin Techsat 1B 31 Aug 16:38:51 16:41:25 14° 272° (W) 16:44:01 435.225 FM
AO-7 31 Aug 16:39:11 16:47:30 73° 254° (WSW) 16:55:52 29.400 - 29.500 MHz
JAS-2 31 Aug 16:48:08 16:52:22 21° 62° (ENE) 16:56:21 435.800 - 435.900 CW/SSB, 435.910 FM
Hamsat 31 Aug 16:49:40 16:52:09 15° 62° (ENE) 16:54:39 145.90 MHz
OPAL 31 Aug 17:34:50 17:40:02 61° 104° (ESE) 17:45:10 ?
RS-15 31 Aug 17:36:21 17:47:14 66° 243° (WSW) 17:58:33 29.354 - 29.394 USB, Beacon 29.352 USB
Sapphire 31 Aug 17:51:01 17:56:24 71° 304° (NW) 18:01:50 437.095 MHz 1200 baud AX-25 AFSK
Uosat F 31 Aug 17:53:34 17:56:40 16° 270° (W) 17:59:46 435.120 FM
ISS 31 Aug 17:54:21 17:56:38 17° 225° (SW) 17:58:53 145.800 FM
PCSat 31 Aug 18:20:52 18:25:59 41° 311° (NW) 18:31:08 145.825 MHz
Hamsat 31 Aug 18:23:20 18:27:37 63° 259° (W) 18:31:58 145.90 MHz
JAS-2 31 Aug 18:31:05 18:37:08 64° 258° (WSW) 18:42:35 435.800 - 435.900 CW/SSB, 435.910 FM
AO-7 31 Aug 18:37:22 18:41:43 15° 274° (W) 18:46:05 29.400 - 29.500 MHz
SO-67 31 Aug 18:40:20 18:43:17 26° 70° (ENE) 18:46:14 435.3500 MHz FM
OPAL 31 Aug 19:14:35 19:18:29 22° 302° (WNW) 19:22:21 ?
STRAND 1 31 Aug 19:20:17 19:24:56 34° 97° (E) 19:29:34 ?
HO-68 31 Aug 19:20:33 19:25:30 21° 52° (NE) 19:30:28 435.675 MHz FM
Sapphire 31 Aug 19:37:23 19:40:50 17° 326° (NW) 19:44:19 437.095 MHz 1200 baud AX-25 AFSK
RS-15 31 Aug 19:51:56 19:57:20 15° 264° (W) 20:02:51 29.354 - 29.394 USB, Beacon 29.352 USB
PCSat 31 Aug 20:08:59 20:10:57 12° 334° (NNW) 20:12:54 145.825 MHz
SO-67 31 Aug 20:13:43 20:16:20 20° 266° (W) 20:18:58 435.3500 MHz FM
UKube-1 31 Aug 20:16:22 20:18:48 15° 60° (ENE) 20:21:14 145.840 MHz, 145.915 MHz
Oscar 11 31 Aug 20:23:00 20:23:59 11° 58° (ENE) 20:24:58 145.825 FM, Beacon 2401.500 USB
STRAND 1 31 Aug 20:59:33 21:04:04 33° 294° (WNW) 21:08:35 ?
HO-68 31 Aug 21:05:08 21:12:17 88° 72° (ENE) 21:19:28 435.675 MHz FM
MaSat-1 31 Aug 21:49:34 21:53:43 29° 50° (NE) 21:57:25 437.345 MHz
UKube-1 31 Aug 21:50:11 21:54:30 65° 258° (WSW) 21:58:50 145.840 MHz, 145.915 MHz
Oscar 11 31 Aug 21:55:06 21:59:27 87° 76° (ENE) 22:03:50 145.825 FM, Beacon 2401.500 USB
FUNcube-1 31 Aug 22:23:53 22:28:03 69° 74° (ENE) 22:32:20 145.950 - 145.970 MHz USB
Saudisat 1A 31 Aug 22:33:19 22:37:27 42° 119° (ESE) 22:41:38 436.775 MHz
HO-68 31 Aug 22:56:10 23:00:52 19° 271° (W) 23:05:36 435.675 MHz FM
KITSAT 1 31 Aug 23:12:23 23:19:54 44° 112° (ESE) 23:27:26 435.175 FM
MaSat-1 31 Aug 23:26:38 23:30:45 34° 252° (WSW) 23:34:22 437.345 MHz
